This is the latest recevied weather packets stored in our database for station/object EA3GKP-10. If no packets are shown the sender has not sent any weather packets the latest 10 day(s).
| Time | Temp. | Humidity | Pressure | Rain* | Wind** | Luminosity | Snow |
|---|---|---|---|---|---|---|---|
| 1777634220 | 22.78° C | - | - | 0 mm | 0.89 m/s, 96° | - | - |
| 1777633614 | 22.22° C | - | - | 0 mm | 1.34 m/s, 110° | - | - |
| 1777633009 | 22.78° C | - | - | 0 mm | 0.89 m/s, 136° | - | - |
| 1777632706 | 22.78° C | - | - | 0 mm | 1.34 m/s, 89° | - | - |
| 1777632405 | 22.22° C | - | - | 0 mm | 0.89 m/s, 170° | - | - |
| 1777631797 | 21.67° C | - | - | 0 mm | 2.24 m/s, 135° | - | - |
| 1777631494 | 22.22° C | - | - | 0 mm | 2.24 m/s, 124° | - | - |
| 1777631191 | 21.11° C | - | - | 0 mm | 2.24 m/s, 135° | - | - |
| 1777630888 | 21.67° C | - | - | 0 mm | 1.34 m/s, 143° | - | - |
| 1777630585 | 22.22° C | - | - | 0 mm | 1.34 m/s, 124° | - | - |
| 1777630283 | 21.11° C | - | - | 0 mm | 0.45 m/s, 165° | - | - |
| 1777629980 | 20.56° C | - | - | 0 mm | 2.24 m/s, 87° | - | - |
| 1777629676 | 21.11° C | - | - | 0 mm | 1.34 m/s, 55° | - | - |
| 1777629374 | 22.22° C | - | - | 0 mm | 0.89 m/s, 96° | - | - |
| 1777629069 | 20° C | - | - | 0 mm | 0 m/s | - | - |
| 1777628766 | 20° C | - | - | 0 mm | 1.34 m/s, 103° | - | - |
| 1777628463 | 21.11° C | - | - | 0 mm | 2.24 m/s, 160° | - | - |
| 1777628161 | 21.67° C | - | - | 0 mm | 1.34 m/s, 114° | - | - |
| 1777627858 | 20° C | - | - | 0 mm | 0.89 m/s, 208° | - | - |
| 1777627555 | 21.11° C | - | - | 0 mm | 0.89 m/s, 143° | - | - |
| 1777627248 | 20.56° C | - | - | 0 mm | 1.34 m/s, 113° | - | - |
| 1777626945 | 21.11° C | - | - | 0 mm | 0.89 m/s, 113° | - | - |
| 1777626639 | 21.67° C | - | - | 0 mm | 0.89 m/s, 159° | - | - |
| 1777626339 | 21.11° C | - | - | 0 mm | 0 m/s | - | - |
| 1777626033 | 20.56° C | - | - | 0 mm | 1.34 m/s, 238° | - | - |
* Rain latest hour (hover to see other rain measurements)
** Current wind speed in m/s (hover to see current wind gust speed)